This demonstration page uses our WeatherBlox Daily Observations layout. Learn more.

Left ArrowRight Arrow

53.62937, 11.41316

Hourly Observations for June 25, 2019

Temp ( °F °C ) Dew Point ( °F °C ) Humidity (%) Winds ( mph kmh ) Pressure ( in mb ) Visibility ( mi km ) Precip ( " mm )
6:50 am 06:50 Mostly Sunny 63 17 55 13 77 77 ENE 3 6 30.15 1021 7 11 N/A
7:20 am 07:20 Mostly Sunny 64 18 55 13 73 73 ENE 5 7 30.15 1021 7 11 N/A
7:50 am 07:50 Mostly Sunny 68 20 57 14 69 69 E 5 7 30.15 1021 7 11 N/A
8:20 am 08:20 Mostly Sunny 70 21 57 14 64 64 ESE 7 11 30.15 1021 7 11 N/A
8:50 am 08:50 Mostly Sunny 73 23 57 14 57 57 ESE 6 9 30.15 1021 7 11 N/A
9:20 am 09:20 Mostly Sunny 75 24 59 15 57 57 ESE 5 7 30.15 1021 7 11 N/A
9:50 am 09:50 Mostly Sunny 77 25 59 15 54 54 SE 5 7 30.15 1021 7 11 N/A
10:20 am 10:20 Mostly Sunny 79 26 61 16 54 54 SE 7 11 30.15 1021 7 11 N/A
10:50 am 10:50 Mostly Sunny 81 27 59 15 48 48 SE 7 11 30.15 1021 7 11 N/A
11:20 am 11:20 Mostly Sunny 81 27 61 16 51 51 SSE 7 11 30.15 1021 7 11 N/A
11:50 am 11:50 Mostly Sunny 84 29 61 16 45 45 SE 6 9 30.15 1021 7 11 N/A
12:20 pm 12:20 Mostly Sunny 84 29 61 16 45 45 SSE 7 11 30.15 1021 7 11 N/A
12:50 pm 12:50 Mostly Sunny 86 30 61 16 43 43 SSE 7 11 30.12 1020 7 11 N/A
1:20 pm 13:20 Mostly Sunny 88 31 59 15 38 38 SSE 8 13 30.12 1020 7 11 N/A
1:50 pm 13:50 Mostly Sunny 88 31 59 15 38 38 SSE 8 13 30.12 1020 7 11 N/A
2:20 pm 14:20 Mostly Sunny 88 31 59 15 38 38 SSE 8 13 30.12 1020 7 11 N/A
2:50 pm 14:50 Mostly Sunny 88 31 59 15 38 38 SE 8 13 30.12 1020 7 11 N/A
3:20 pm 15:20 Mostly Sunny 90 32 57 14 33 33 SSE 9 15 30.12 1020 7 11 N/A
3:50 pm 15:50 Mostly Sunny 90 32 59 15 36 36 SSE 9 15 30.12 1020 7 11 N/A
4:20 pm 16:20 Mostly Sunny 90 32 59 15 36 36 SE 8 13 30.09 1019 7 11 N/A
4:50 pm 16:50 Mostly Sunny 90 32 61 16 38 38 SSE 8 13 30.09 1019 7 11 N/A
5:20 pm 17:20 Mostly Sunny 90 32 61 16 38 38 SSE 7 11 30.09 1019 7 11 N/A
5:50 pm 17:50 Mostly Sunny 90 32 63 17 41 41 SSE 3 6 30.09 1019 7 11 N/A
6:20 pm 18:20 Mostly Sunny 88 31 61 16 40 40 SE 5 7 30.09 1019 7 11 N/A
6:50 pm 18:50 Mostly Sunny 90 32 63 17 41 41 SE 5 7 30.09 1019 7 11 N/A
7:20 pm 19:20 Mostly Sunny 88 31 63 17 43 43 SE 3 6 30.06 1018 7 11 N/A
7:50 pm 19:50 Mostly Sunny 86 30 64 18 49 49 S 3 6 30.06 1018 7 11 N/A
8:20 pm 20:20 Mostly Sunny 86 30 68 20 55 55 E 2 4 30.06 1018 7 11 N/A
8:50 pm 20:50 Mostly Sunny 84 29 68 20 58 58 VRB 1 2 30.06 1018 7 11 N/A

Powered by AerisWeather